Home   Weather   Hereford   Past weeks

Flag for USA Past Weather in Hereford, Texas, USA — Yesterday and Last 2 Weeks

Now
39 °F

Passing clouds.


Feels Like: 28 °F
Forecast: 35 / 55 °F
Wind: 24 mph from Northwest

Location: Clovis Municipal

Current Time: Jan 22, 2017 at 12:20:41 am

Latest Report: Jan 21, 2017 at 11:35 pm


Visibility: 10 mi

Pressure: 29.53 "Hg (25.57 "Hg at 1167m altitude)

Humidity: 56%

Dew Point: 25 °F

Location of HerefordLocation

Past Weather in Hereford — Graph

°F

Hereford Temperature Yesterday

Maximum temperature yesterday: 54 °F (at 1:55 pm)
Minimum temperature yesterday: 32 °F (at 7:55 am)
Average temperature yesterday: 43 °F

High & Low Weather Summary for the Past Weeks

 TemperatureHumidityPressure
High72 °F (Jan 9, 1:55 pm)93% (Jan 14, 6:15 am)30.50 "Hg (Jan 14, 6:15 am)
Low-2 °F (Jan 6, 10:55 pm)12% (Jan 10, 4:55 pm)29.33 "Hg (Jan 21, 4:35 pm)
Average41 °F63%30.00 "Hg
* Reported Jan 6 10:35 pm — Jan 21 10:55 pm, Hereford, Weather by CustomWeather, © 2017

Note: Actual official high and low records may vary slightly from our data, if they occured in-between our weather recording intervals... More about our weather records

Advertising

Hereford Weather History for the Previous 24 Hours

Scroll right to see more
 ConditionsComfort  
Time TempWeatherWind HumidityBarometerVisibility
10:55 pm
Sat, Jan 21
39 °FPassing clouds.22 mph56%29.51 "Hg10 mi
10:15 pm43 °FOvercast.23 mph46%29.49 "Hg10 mi
9:55 pm43 °FOvercast.24 mph42%29.48 "Hg10 mi
9:15 pm43 °FPassing clouds.28 mph42%29.45 "Hg10 mi
8:55 pm45 °FOvercast.31 mph39%29.43 "Hg10 mi
8:15 pm43 °FClear.24 mph46%29.41 "Hg10 mi
7:55 pm43 °FClear.21 mph42%29.41 "Hg10 mi
7:35 pm45 °FClear.23 mph42%29.40 "Hg10 mi
6:55 pm45 °FClear.29 mph39%29.38 "Hg10 mi
6:15 pm46 °FClear.24 mph37%29.38 "Hg10 mi
5:15 pm52 °FSunny.23 mph38%29.36 "Hg10 mi
4:55 pm52 °FSunny.37 mph30%29.35 "Hg10 mi
4:35 pm52 °FSunny.37 mph30%29.33 "Hg10 mi
3:55 pm54 °FSunny.30 mph33%29.34 "Hg10 mi
3:35 pm54 °FPassing clouds.36 mph33%29.34 "Hg10 mi
2:55 pm52 °FPassing clouds.26 mph35%29.34 "Hg10 mi
2:15 pm48 °FPartly sunny.20 mph58%29.35 "Hg10 mi
1:55 pm54 °FScattered clouds.28 mph51%29.36 "Hg10 mi
1:35 pm52 °FPassing clouds.21 mph58%29.37 "Hg10 mi
12:55 pm48 °FPartly sunny.25 mph76%29.40 "Hg10 mi
12:15 pm46 °FMostly cloudy.17 mph76%29.41 "Hg10 mi
11:55 am46 °FMostly cloudy.18 mph71%29.42 "Hg10 mi
11:15 am48 °FPartly sunny.17 mph66%29.43 "Hg10 mi
10:55 am48 °FPassing clouds.16 mph66%29.43 "Hg10 mi
10:15 am46 °FMore clouds than sun.17 mph71%29.45 "Hg10 mi
9:55 am45 °FBroken clouds.16 mph76%29.45 "Hg10 mi
9:15 am41 °FSunny.13 mph81%29.45 "Hg10 mi
8:35 am39 °FPartly sunny.8 mph81%29.45 "Hg10 mi
7:55 am32 °FClear.5 mph87%29.46 "Hg10 mi
7:15 am34 °FClear.10 mph81%29.47 "Hg10 mi
6:55 am34 °FPassing clouds.8 mph81%29.47 "Hg10 mi
6:15 am36 °FPassing clouds.3 mph81%29.48 "Hg10 mi
5:55 am34 °FClear.6 mph81%29.48 "Hg10 mi
5:15 am36 °FClear.3 mph75%29.50 "Hg10 mi
4:55 am36 °FPassing clouds.5 mph81%29.51 "Hg10 mi
4:15 am36 °FPassing clouds.5 mph81%29.53 "Hg10 mi
3:55 am36 °FPartly cloudy.5 mph81%29.54 "Hg10 mi
3:15 am37 °FOvercast.7 mph75%29.55 "Hg10 mi
2:55 am36 °FPassing clouds.7 mph81%29.55 "Hg10 mi
2:15 am36 °FPassing clouds.5 mph75%29.55 "Hg10 mi
1:35 am36 °FClear.3 mph75%29.57 "Hg10 mi
12:55 am36 °FClear.3 mph75%29.59 "Hg10 mi
12:15 am36 °FClear.5 mph75%29.60 "Hg10 mi
Weather by CustomWeather, © 2017

See weather overviewHow to use our weather pages